,,,PA_Meas_PMT16A,,PR_Meas_QMR101_102,,RH_Meas_QMH101,,SR_Meas_QMS101,,TA_Meas_QMH101,,GenWind,,GenWind,
date,time,status,PA,status,PR,status,RH,status,SR,status,TA,status,DirAvg,status,SpdAvg,
2010-09-08, 00:00:05,VALID,1010.27,VALID,0,VALID,103.428,VALID,0,VALID,22.8757,VALID,100,VALID,0.101953,
2010-09-08, 00:01:05,VALID,1010.25,VALID,0,VALID,103.42,VALID,0,VALID,22.8757,VALID,100,VALID,0.380078,
2010-09-08, 00:02:05,VALID,1010.25,VALID,0,VALID,103.428,VALID,0,VALID,22.8757,VALID,65,VALID,0.564844,
2010-09-08, 00:03:05,VALID,1010.26,VALID,0,VALID,103.42,VALID,0,VALID,22.835,VALID,96,VALID,0.458984,
2010-09-08, 00:04:05,VALID,1010.25,VALID,0,VALID,103.428,VALID,0,VALID,22.835,VALID,106,VALID,0.768359,
2010-09-08, 00:05:05,VALID,1010.27,VALID,0,VALID,103.428,VALID,0,VALID,22.835,VALID,81,VALID,0.636719,
2010-09-08, 00:06:05,VALID,1010.28,VALID,0,VALID,103.436,VALID,0,VALID,22.8562,VALID,85,VALID,0.49375,
2010-09-08, 00:07:05,VALID,1010.27,VALID,0,VALID,103.42,VALID,0,VALID,22.8368,VALID,85,VALID,0.978516,
2010-09-08, 00:08:05,VALID,1010.26,VALID,0,VALID,103.413,VALID,0,VALID,22.8368,VALID,94,VALID,1.01484,
2010-09-08, 00:09:05,VALID,1010.24,VALID,0,VALID,103.405,VALID,0.105969,VALID,22.8368,VALID,91,VALID,1.14414,
2010-09-08, 00:10:05,VALID,1010.22,VALID,0,VALID,103.398,VALID,0,VALID,22.8368,VALID,91,VALID,0.558594,
2010-09-08, 00:11:05,VALID,1010.23,VALID,0,VALID,103.413,VALID,0,VALID,22.8368,VALID,104,VALID,0.759375,
2010-09-08, 00:12:05,VALID,1010.22,VALID,0,VALID,103.405,VALID,0,VALID,22.8155,VALID,71,VALID,0.60625,
2010-09-08, 00:13:05,VALID,1010.2,VALID,0,VALID,103.42,VALID,0,VALID,22.8155,VALID,81,VALID,0.949219,
2010-09-08, 00:14:05,VALID,1010.17,VALID,0,VALID,103.413,VALID,0,VALID,22.8368,VALID,103,VALID,0.59375,
2010-09-08, 00:15:05,VALID,1010.18,VALID,0,VALID,103.42,VALID,0.105969,VALID,22.7961,VALID,68,VALID,0.917188,
2010-09-08, 00:16:05,VALID,1010.14,VALID,0,VALID,103.42,VALID,0,VALID,22.8173,VALID,94,VALID,0.375781,
2010-09-08, 00:17:05,VALID,1010.12,VALID,0,VALID,103.42,VALID,0,VALID,22.8173,VALID,82,VALID,0.282813,
2010-09-08, 00:18:05,VALID,1010.14,VALID,0,VALID,103.443,VALID,0,VALID,22.7961,VALID,60,VALID,0.498047,
2010-09-08, 00:19:05,VALID,1010.11,VALID,0,VALID,103.443,VALID,0.105969,VALID,22.8173,VALID,55,VALID,0.113672,
2010-09-08, 00:20:05,VALID,1010.09,VALID,0,VALID,103.443,VALID,0,VALID,22.8173,VALID,55,VALID,0.119531,
2010-09-08, 00:21:05,VALID,1010.1,VALID,0,VALID,103.451,VALID,0,VALID,22.8173,VALID,91,VALID,0.566016,
2010-09-08, 00:22:05,VALID,1010.07,VALID,0,VALID,103.466,VALID,0,VALID,22.7978,VALID,98,VALID,0.633984,
2010-09-08, 00:23:05,VALID,1010.04,VALID,0,VALID,103.459,VALID,0,VALID,22.7978,VALID,96,VALID,0.533984,
2010-09-08, 00:24:05,VALID,1010.02,VALID,0,VALID,103.466,VALID,0,VALID,22.7766,VALID,112,VALID,0.867188,
2010-09-08, 00:25:05,VALID,1010.02,VALID,0,VALID,103.459,VALID,0,VALID,22.7783,VALID,100,VALID,0.755078,
2010-09-08, 00:26:05,VALID,1009.98,VALID,0,VALID,103.451,VALID,0,VALID,22.7783,VALID,99,VALID,0.561328,
2010-09-08, 00:27:05,VALID,1010,VALID,0,VALID,103.489,VALID,0,VALID,22.7783,VALID,94,VALID,0.482031,
2010-09-08, 00:28:05,VALID,1009.95,VALID,0,VALID,103.474,VALID,0,VALID,22.7588,VALID,93,VALID,0.591797,
2010-09-08, 00:29:05,VALID,1009.98,VALID,0,VALID,103.489,VALID,0,VALID,22.7588,VALID,94,VALID,0.678125,
2010-09-08, 00:30:05,VALID,1010,VALID,0,VALID,103.481,VALID,0,VALID,22.7394,VALID,102,VALID,0.591406,
2010-09-08, 00:31:05,VALID,1009.96,VALID,0,VALID,103.474,VALID,0,VALID,22.7394,VALID,94,VALID,0.784766,
2010-09-08, 00:32:05,VALID,1010,VALID,0,VALID,103.466,VALID,0,VALID,22.7606,VALID,113,VALID,0.671484,
2010-09-08, 00:33:05,VALID,1009.99,VALID,0,VALID,103.474,VALID,0,VALID,22.78,VALID,111,VALID,0.412891,
2010-09-08, 00:34:05,VALID,1009.99,VALID,0,VALID,103.497,VALID,0,VALID,22.7588,VALID,95,VALID,0.527344,
2010-09-08, 00:35:05,VALID,1009.96,VALID,0,VALID,103.497,VALID,0,VALID,22.7783,VALID,90,VALID,0.665234,
2010-09-08, 00:36:05,VALID,1009.96,VALID,0,VALID,103.504,VALID,0,VALID,22.7783,VALID,93,VALID,0.506641,
2010-09-08, 00:37:05,VALID,1009.96,VALID,0,VALID,103.504,VALID,0,VALID,22.7783,VALID,131,VALID,0.366406,
2010-09-08, 00:38:05,VALID,1009.92,VALID,0,VALID,103.52,VALID,0,VALID,22.7588,VALID,49,VALID,0.319922,
2010-09-08, 00:39:05,VALID,1009.92,VALID,0,VALID,103.504,VALID,0,VALID,22.7394,VALID,77,VALID,0.614453,
2010-09-08, 00:40:05,VALID,1009.91,VALID,0,VALID,103.512,VALID,0,VALID,22.7588,VALID,77,VALID,0.341797,
2010-09-08, 00:41:05,VALID,1009.9,VALID,0,VALID,103.504,VALID,0,VALID,22.7588,VALID,77,VALID,0.541406,
2010-09-08, 00:42:05,VALID,1009.89,VALID,0,VALID,103.527,VALID,0,VALID,22.7588,VALID,77,VALID,0.137109,
2010-09-08, 00:43:05,VALID,1009.85,VALID,0,VALID,103.504,VALID,0,VALID,22.7588,VALID,70,VALID,0.768359,
2010-09-08, 00:44:05,VALID,1009.86,VALID,0,VALID,103.512,VALID,0,VALID,22.7199,VALID,82,VALID,0.773828,
2010-09-08, 00:45:05,VALID,1009.84,VALID,0,VALID,103.504,VALID,0,VALID,22.7394,VALID,83,VALID,0.814453,
2010-09-08, 00:46:05,VALID,1009.84,VALID,0,VALID,103.497,VALID,0,VALID,22.7394,VALID,80,VALID,0.508594,
2010-09-08, 00:47:05,VALID,1009.83,VALID,0,VALID,103.474,VALID,0,VALID,22.7588,VALID,79,VALID,0.0433594,
2010-09-08, 00:48:05,VALID,1009.83,VALID,0,VALID,103.489,VALID,0,VALID,22.7394,VALID,87,VALID,0.676172,
2010-09-08, 00:49:05,VALID,1009.82,VALID,0,VALID,103.481,VALID,0,VALID,22.7588,VALID,96,VALID,0.841406,
2010-09-08, 00:50:05,VALID,1009.81,VALID,0,VALID,103.474,VALID,0,VALID,22.7588,VALID,108,VALID,0.620313,
2010-09-08, 00:51:05,VALID,1009.78,VALID,0,VALID,103.489,VALID,0,VALID,22.7394,VALID,99,VALID,0.824219,
2010-09-08, 00:52:05,VALID,1009.8,VALID,0,VALID,103.466,VALID,0,VALID,22.7199,VALID,89,VALID,0.632813,
2010-09-08, 00:53:05,VALID,1009.79,VALID,0,VALID,103.466,VALID,0,VALID,22.7394,VALID,89,VALID,0.0449219,
2010-09-08, 00:54:05,VALID,1009.76,VALID,0,VALID,103.459,VALID,0,VALID,22.7588,VALID,65,VALID,0.408203,
2010-09-08, 00:55:05,VALID,1009.74,VALID,0,VALID,103.451,VALID,0,VALID,22.7394,VALID,65,VALID,0.516406,
2010-09-08, 00:56:05,VALID,1009.74,VALID,0,VALID,103.42,VALID,0,VALID,22.7199,VALID,65,VALID,0.427344,
2010-09-08, 00:57:05,VALID,1009.73,VALID,0,VALID,103.443,VALID,0,VALID,22.7394,VALID,65,VALID,0.342969,
2010-09-08, 00:58:05,VALID,1009.68,VALID,0,VALID,103.436,VALID,0,VALID,22.7394,VALID,67,VALID,0.183984,
2010-09-08, 00:59:05,VALID,1009.72,VALID,0,VALID,103.428,VALID,0,VALID,22.7588,VALID,67,VALID,0.0417969,
2010-09-08, 01:00:05,VALID,1009.71,VALID,0,VALID,103.42,VALID,0,VALID,22.7783,VALID,114,VALID,0.3875,
2010-09-08, 01:01:05,VALID,1009.68,VALID,0,VALID,103.428,VALID,0,VALID,22.7783,VALID,138,VALID,0.387109,
2010-09-08, 01:02:05,VALID,1009.7,VALID,0,VALID,103.451,VALID,0,VALID,22.7783,VALID,133,VALID,0.6875,
2010-09-08, 01:03:05,VALID,1009.69,VALID,0,VALID,103.42,VALID,0,VALID,22.7588,VALID,138,VALID,0.767969,
2010-09-08, 01:04:05,VALID,1009.68,VALID,0,VALID,103.428,VALID,0,VALID,22.7571,VALID,141,VALID,0.671484,
2010-09-08, 01:05:05,VALID,1009.65,VALID,0,VALID,103.436,VALID,0,VALID,22.7588,VALID,142,VALID,0.875781,
2010-09-08, 01:06:05,VALID,1009.67,VALID,0,VALID,103.451,VALID,0,VALID,22.7394,VALID,146,VALID,0.680078,
2010-09-08, 01:07:05,VALID,1009.65,VALID,0,VALID,103.428,VALID,0,VALID,22.7394,VALID,143,VALID,0.454688,
2010-09-08, 01:08:05,VALID,1009.64,VALID,0,VALID,103.405,VALID,0,VALID,22.7394,VALID,143,VALID,0.526172,
2010-09-08, 01:09:05,VALID,1009.65,VALID,0,VALID,103.428,VALID,0,VALID,22.7394,VALID,143,VALID,0.715625,
2010-09-08, 01:10:05,VALID,1009.64,VALID,0,VALID,103.405,VALID,0,VALID,22.6987,VALID,143,VALID,0.579297,
2010-09-08, 01:11:05,VALID,1009.63,VALID,0,VALID,103.42,VALID,0,VALID,22.7394,VALID,143,VALID,0.590625,
2010-09-08, 01:12:05,VALID,1009.6,VALID,0,VALID,103.42,VALID,0,VALID,22.7394,VALID,143,VALID,0.530859,
2010-09-08, 01:13:05,VALID,1009.58,VALID,0,VALID,103.428,VALID,0,VALID,22.7394,VALID,143,VALID,0.350391,
2010-09-08, 01:14:05,VALID,1009.6,VALID,0,VALID,103.428,VALID,0,VALID,22.7394,VALID,143,VALID,0.203906,
2010-09-08, 01:15:05,VALID,1009.59,VALID,0,VALID,103.436,VALID,0,VALID,22.7394,VALID,170,VALID,0.480078,
2010-09-08, 01:16:05,VALID,1009.58,VALID,0,VALID,103.436,VALID,0,VALID,22.7199,VALID,170,VALID,0.610156,
2010-09-08, 01:17:05,VALID,1009.59,VALID,0,VALID,103.451,VALID,0,VALID,22.7199,VALID,170,VALID,0.399609,
2010-09-08, 01:18:05,VALID,1009.61,VALID,0,VALID,103.428,VALID,0,VALID,22.7004,VALID,170,VALID,0.392188,
2010-09-08, 01:19:05,VALID,1009.6,VALID,0,VALID,103.466,VALID,0.105969,VALID,22.7394,VALID,170,VALID,0.242578,
2010-09-08, 01:20:05,VALID,1009.63,VALID,0,VALID,103.474,VALID,0,VALID,22.7199,VALID,95,VALID,0.709375,
2010-09-08, 01:21:05,VALID,1009.61,VALID,0,VALID,103.466,VALID,0,VALID,22.7004,VALID,111,VALID,0.716797,
2010-09-08, 01:22:05,VALID,1009.62,VALID,0,VALID,103.451,VALID,0,VALID,22.7199,VALID,113,VALID,0.277734,
2010-09-08, 01:23:05,VALID,1009.6,VALID,0,VALID,103.466,VALID,0,VALID,22.7004,VALID,117,VALID,0.68125,
2010-09-08, 01:24:05,VALID,1009.61,VALID,0,VALID,103.459,VALID,0,VALID,22.7004,VALID,126,VALID,0.787891,
2010-09-08, 01:25:05,VALID,1009.6,VALID,0,VALID,103.466,VALID,0,VALID,22.7199,VALID,126,VALID,0.614062,
2010-09-08, 01:26:05,VALID,1009.64,VALID,0,VALID,103.443,VALID,0,VALID,22.7004,VALID,144,VALID,0.583203,
2010-09-08, 01:27:05,VALID,1009.61,VALID,0,VALID,103.443,VALID,0.105969,VALID,22.7004,VALID,144,VALID,0.369922,
2010-09-08, 01:28:05,VALID,1009.64,VALID,0,VALID,103.428,VALID,0,VALID,22.6792,VALID,144,VALID,0.641797,
2010-09-08, 01:29:05,VALID,1009.63,VALID,0,VALID,103.413,VALID,0,VALID,22.7199,VALID,144,VALID,0.533984,
2010-09-08, 01:30:05,VALID,1009.61,VALID,0,VALID,103.436,VALID,0,VALID,22.7199,VALID,144,VALID,0.299609,
2010-09-08, 01:31:05,VALID,1009.62,VALID,0,VALID,103.436,VALID,0,VALID,22.7394,VALID,162,VALID,0.573828,
2010-09-08, 01:32:05,VALID,1009.64,VALID,0,VALID,103.443,VALID,0.105969,VALID,22.7394,VALID,162,VALID,0.340234,
2010-09-08, 01:33:05,VALID,1009.61,VALID,0,VALID,103.413,VALID,0,VALID,22.7394,VALID,162,VALID,0.471094,
2010-09-08, 01:34:05,VALID,1009.62,VALID,0,VALID,103.428,VALID,0,VALID,22.7199,VALID,153,VALID,0.596484,
2010-09-08, 01:35:05,VALID,1009.64,VALID,0,VALID,103.436,VALID,0,VALID,22.7394,VALID,153,VALID,0.292969,
2010-09-08, 01:36:05,VALID,1009.62,VALID,0,VALID,103.413,VALID,0,VALID,22.7394,VALID,153,VALID,0.351172,
2010-09-08, 01:37:05,VALID,1009.61,VALID,0,VALID,103.42,VALID,0,VALID,22.7394,VALID,153,VALID,0.414453,
2010-09-08, 01:38:05,VALID,1009.63,VALID,0,VALID,103.428,VALID,0,VALID,22.7588,VALID,153,VALID,0.294141,
2010-09-08, 01:39:05,VALID,1009.62,VALID,0,VALID,103.413,VALID,0,VALID,22.7588,VALID,111,VALID,0.615625,
2010-09-08, 01:40:05,VALID,1009.61,VALID,0,VALID,103.428,VALID,0,VALID,22.7376,VALID,113,VALID,0.593359,
2010-09-08, 01:41:05,VALID,1009.59,VALID,0,VALID,103.436,VALID,0,VALID,22.7588,VALID,128,VALID,0.633203,
2010-09-08, 01:42:05,VALID,1009.61,VALID,0,VALID,103.428,VALID,0,VALID,22.7783,VALID,128,VALID,0.271484,
2010-09-08, 01:43:05,VALID,1009.61,VALID,0,VALID,103.443,VALID,0,VALID,22.7978,VALID,125,VALID,0.316406,
2010-09-08, 01:44:05,VALID,1009.6,VALID,0,VALID,103.428,VALID,0,VALID,22.8173,VALID,120,VALID,0.149609,
2010-09-08, 01:45:05,VALID,1009.6,VALID,0,VALID,103.413,VALID,0,VALID,22.7978,VALID,138,VALID,0.702344,
2010-09-08, 01:46:05,VALID,1009.59,VALID,0,VALID,103.413,VALID,0,VALID,22.8173,VALID,137,VALID,0.510156,
2010-09-08, 01:47:05,VALID,1009.58,VALID,0,VALID,103.413,VALID,0,VALID,22.8368,VALID,132,VALID,0.302344,
2010-09-08, 01:48:05,VALID,1009.59,VALID,0,VALID,103.42,VALID,0,VALID,22.8368,VALID,121,VALID,0.425391,
2010-09-08, 01:49:05,VALID,1009.6,VALID,0,VALID,103.428,VALID,0,VALID,22.8562,VALID,111,VALID,0.467187,
2010-09-08, 01:50:05,VALID,1009.6,VALID,0,VALID,103.428,VALID,0,VALID,22.8562,VALID,75,VALID,0.324609,
2010-09-08, 01:51:05,VALID,1009.61,VALID,0,VALID,103.405,VALID,0,VALID,22.8562,VALID,93,VALID,1.03477,
2010-09-08, 01:52:05,VALID,1009.66,VALID,0,VALID,103.42,VALID,0,VALID,22.858,VALID,119,VALID,0.725,
2010-09-08, 01:53:05,VALID,1009.67,VALID,0,VALID,103.413,VALID,0.105969,VALID,22.8562,VALID,94,VALID,0.764844,
2010-09-08, 01:54:05,VALID,1009.68,VALID,0,VALID,103.398,VALID,0,VALID,22.8368,VALID,94,VALID,0.747656,
2010-09-08, 01:55:05,VALID,1009.7,VALID,0,VALID,103.382,VALID,0,VALID,22.8368,VALID,100,VALID,0.933594,
2010-09-08, 01:56:05,VALID,1009.7,VALID,0,VALID,103.398,VALID,0,VALID,22.8562,VALID,107,VALID,0.811719,
2010-09-08, 01:57:04,VALID,1009.69,VALID,0,VALID,103.42,VALID,0,VALID,22.8562,VALID,100,VALID,0.871875,
2010-09-08, 01:58:04,VALID,1009.69,VALID,0,VALID,103.405,VALID,0,VALID,22.835,VALID,119,VALID,0.855469,
2010-09-08, 01:59:04,VALID,1009.68,VALID,0,VALID,103.42,VALID,0,VALID,22.8757,VALID,86,VALID,0.782422,
2010-09-08, 02:00:04,VALID,1009.67,VALID,0,VALID,103.443,VALID,0,VALID,22.8757,VALID,73,VALID,0.575,
2010-09-08, 02:01:04,VALID,1009.65,VALID,0,VALID,103.436,VALID,0.105969,VALID,22.8757,VALID,97,VALID,0.746875,
2010-09-08, 02:02:04,VALID,1009.64,VALID,0,VALID,103.436,VALID,0,VALID,22.8545,VALID,93,VALID,0.59375,
2010-09-08, 02:03:04,VALID,1009.66,VALID,0,VALID,103.451,VALID,0,VALID,22.8757,VALID,106,VALID,0.472656,
2010-09-08, 02:04:04,VALID,1009.63,VALID,0,VALID,103.466,VALID,0,VALID,22.8562,VALID,90,VALID,0.829297,
2010-09-08, 02:05:04,VALID,1009.65,VALID,0,VALID,103.451,VALID,0,VALID,22.8562,VALID,111,VALID,0.482422,
2010-09-08, 02:06:04,VALID,1009.64,VALID,0,VALID,103.459,VALID,0,VALID,22.8775,VALID,115,VALID,0.435937,
2010-09-08, 02:07:04,VALID,1009.65,VALID,0,VALID,103.459,VALID,0,VALID,22.8775,VALID,106,VALID,0.392578,
2010-09-08, 02:08:04,VALID,1009.65,VALID,0,VALID,103.474,VALID,0,VALID,22.8562,VALID,108,VALID,0.842969,
2010-09-08, 02:09:04,VALID,1009.64,VALID,0,VALID,103.466,VALID,0,VALID,22.8545,VALID,126,VALID,0.306641,
2010-09-08, 02:10:04,VALID,1009.65,VALID,0,VALID,103.481,VALID,0,VALID,22.8545,VALID,93,VALID,0.629297,
2010-09-08, 02:11:04,VALID,1009.65,VALID,0,VALID,103.481,VALID,0,VALID,22.8545,VALID,94,VALID,0.849609,
2010-09-08, 02:12:04,VALID,1009.64,VALID,0,VALID,103.527,VALID,0.105969,VALID,22.8545,VALID,106,VALID,0.650781,
2010-09-08, 02:13:04,VALID,1009.65,VALID,0,VALID,103.481,VALID,0.105969,VALID,22.8757,VALID,114,VALID,0.791797,
2010-09-08, 02:14:04,VALID,1009.64,VALID,0,VALID,103.527,VALID,0,VALID,22.8757,VALID,95,VALID,1.18086,
2010-09-08, 02:15:04,VALID,1009.65,VALID,0,VALID,103.512,VALID,0,VALID,22.8757,VALID,97,VALID,0.530859,
2010-09-08, 02:16:04,VALID,1009.66,VALID,0,VALID,103.512,VALID,0,VALID,22.8757,VALID,88,VALID,0.845312,
2010-09-08, 02:17:04,VALID,1009.67,VALID,0,VALID,103.504,VALID,0,VALID,22.8775,VALID,83,VALID,0.648438,
2010-09-08, 02:18:04,VALID,1009.71,VALID,0,VALID,103.512,VALID,0,VALID,22.8545,VALID,82,VALID,0.639063,
2010-09-08, 02:19:04,VALID,1009.73,VALID,0,VALID,103.497,VALID,0,VALID,22.8562,VALID,77,VALID,0.927344,
2010-09-08, 02:20:04,VALID,1009.71,VALID,0,VALID,103.52,VALID,0,VALID,22.8368,VALID,77,VALID,1.35664,
2010-09-08, 02:21:04,VALID,1009.71,VALID,0,VALID,103.497,VALID,0,VALID,22.8173,VALID,91,VALID,0.655078,
2010-09-08, 02:22:04,VALID,1009.71,VALID,0,VALID,103.497,VALID,0,VALID,22.8173,VALID,88,VALID,0.932813,
2010-09-08, 02:23:04,VALID,1009.76,VALID,0,VALID,103.504,VALID,0,VALID,22.7978,VALID,98,VALID,0.961328,
2010-09-08, 02:24:04,VALID,1009.73,VALID,0,VALID,103.512,VALID,0,VALID,22.7978,VALID,86,VALID,0.805859,
2010-09-08, 02:25:04,VALID,1009.76,VALID,0,VALID,103.52,VALID,0,VALID,22.7978,VALID,94,VALID,0.602344,
2010-09-08, 02:26:04,VALID,1009.74,VALID,0,VALID,103.535,VALID,0,VALID,22.7783,VALID,103,VALID,0.923047,
2010-09-08, 02:27:04,VALID,1009.75,VALID,0,VALID,103.527,VALID,0,VALID,22.7783,VALID,111,VALID,0.904688,
2010-09-08, 02:28:04,VALID,1009.76,VALID,0,VALID,103.52,VALID,0,VALID,22.7783,VALID,101,VALID,0.521094,
2010-09-08, 02:29:04,VALID,1009.74,VALID,0,VALID,103.527,VALID,0,VALID,22.7978,VALID,124,VALID,0.581641,
2010-09-08, 02:30:04,VALID,1009.78,VALID,0,VALID,103.55,VALID,0,VALID,22.7783,VALID,119,VALID,1.08086,
2010-09-08, 02:31:04,VALID,1009.75,VALID,0,VALID,103.535,VALID,0,VALID,22.7783,VALID,119,VALID,0.864062,
2010-09-08, 02:32:04,VALID,1009.73,VALID,0,VALID,103.542,VALID,0,VALID,22.7588,VALID,111,VALID,1.10664,
2010-09-08, 02:33:04,VALID,1009.75,VALID,0,VALID,103.535,VALID,0,VALID,22.7588,VALID,117,VALID,0.290625,
2010-09-08, 02:34:04,VALID,1009.75,VALID,0,VALID,103.558,VALID,0,VALID,22.7571,VALID,117,VALID,0.392188,
2010-09-08, 02:35:04,VALID,1009.76,VALID,0,VALID,103.542,VALID,0,VALID,22.7376,VALID,120,VALID,0.444922,
2010-09-08, 02:36:04,VALID,1009.76,VALID,0,VALID,103.535,VALID,0,VALID,22.7571,VALID,120,VALID,0.188672,
2010-09-08, 02:37:04,VALID,1009.77,VALID,0,VALID,103.535,VALID,0,VALID,22.7783,VALID,117,VALID,0.528906,
2010-09-08, 02:38:04,VALID,1009.73,VALID,0,VALID,103.558,VALID,0,VALID,22.7783,VALID,110,VALID,0.491406,
2010-09-08, 02:39:04,VALID,1009.76,VALID,0,VALID,103.535,VALID,0,VALID,22.7588,VALID,104,VALID,0.549219,
2010-09-08, 02:40:04,VALID,1009.73,VALID,0,VALID,103.527,VALID,0,VALID,22.7588,VALID,123,VALID,0.626562,
2010-09-08, 02:41:04,VALID,1009.73,VALID,0,VALID,103.542,VALID,0,VALID,22.7394,VALID,106,VALID,0.877344,
2010-09-08, 02:42:04,VALID,1009.72,VALID,0,VALID,103.535,VALID,0,VALID,22.7394,VALID,90,VALID,0.541016,
2010-09-08, 02:43:04,VALID,1009.72,VALID,0,VALID,103.52,VALID,0,VALID,22.7606,VALID,96,VALID,0.538281,
2010-09-08, 02:44:04,VALID,1009.73,VALID,0,VALID,103.527,VALID,0,VALID,22.7199,VALID,96,VALID,0.918359,
2010-09-08, 02:45:04,VALID,1009.76,VALID,0,VALID,103.497,VALID,0,VALID,22.7394,VALID,111,VALID,0.408594,
2010-09-08, 02:46:04,VALID,1009.73,VALID,0,VALID,103.489,VALID,0,VALID,22.7394,VALID,161,VALID,0.411719,
2010-09-08, 02:47:04,VALID,1009.74,VALID,0,VALID,103.489,VALID,0,VALID,22.7588,VALID,150,VALID,0.902344,
2010-09-08, 02:48:04,VALID,1009.71,VALID,0,VALID,103.504,VALID,0,VALID,22.7394,VALID,151,VALID,0.679688,
2010-09-08, 02:49:04,VALID,1009.71,VALID,0,VALID,103.474,VALID,0,VALID,22.7199,VALID,130,VALID,0.821484,
2010-09-08, 02:50:04,VALID,1009.7,VALID,0,VALID,103.481,VALID,0,VALID,22.7199,VALID,147,VALID,0.295703,
2010-09-08, 02:51:04,VALID,1009.72,VALID,0,VALID,103.489,VALID,0,VALID,22.7394,VALID,147,VALID,0.506641,
2010-09-08, 02:52:04,VALID,1009.73,VALID,0,VALID,103.504,VALID,0,VALID,22.7394,VALID,160,VALID,0.411719,
2010-09-08, 02:53:04,VALID,1009.71,VALID,0,VALID,103.497,VALID,0,VALID,22.7004,VALID,151,VALID,0.630469,
2010-09-08, 02:54:04,VALID,1009.7,VALID,0,VALID,103.474,VALID,0,VALID,22.7004,VALID,145,VALID,0.398047,
2010-09-08, 02:55:04,VALID,1009.73,VALID,0,VALID,103.481,VALID,0,VALID,22.7199,VALID,145,VALID,0,
2010-09-08, 02:56:04,VALID,1009.72,VALID,0,VALID,103.497,VALID,0,VALID,22.7199,VALID,133,VALID,0.577344,
2010-09-08, 02:57:04,VALID,1009.7,VALID,0,VALID,103.489,VALID,0,VALID,22.7394,VALID,127,VALID,0.140234,
2010-09-08, 02:58:04,VALID,1009.69,VALID,0,VALID,103.497,VALID,0,VALID,22.7182,VALID,127,VALID,0,
2010-09-08, 02:59:04,VALID,1009.7,VALID,0,VALID,103.497,VALID,0,VALID,22.7182,VALID,127,VALID,0,
2010-09-08, 03:00:04,VALID,1009.73,VALID,0,VALID,103.497,VALID,0,VALID,22.7182,VALID,127,VALID,0,
2010-09-08, 03:01:04,VALID,1009.75,VALID,0,VALID,103.497,VALID,0,VALID,22.7394,VALID,127,VALID,0.18125,
2010-09-08, 03:02:04,VALID,1009.76,VALID,0,VALID,103.489,VALID,0,VALID,22.7394,VALID,127,VALID,0.410547,
2010-09-08, 03:03:04,VALID,1009.77,VALID,0,VALID,103.497,VALID,0.105969,VALID,22.7376,VALID,183,VALID,0.546484,
2010-09-08, 03:04:04,VALID,1009.81,VALID,0,VALID,103.504,VALID,0,VALID,22.7588,VALID,183,VALID,0.599219,
2010-09-08, 03:05:04,VALID,1009.82,VALID,0,VALID,103.489,VALID,0,VALID,22.7588,VALID,183,VALID,0.275391,
2010-09-08, 03:06:04,VALID,1009.86,VALID,0,VALID,103.489,VALID,0,VALID,22.7571,VALID,178,VALID,0.3125,
2010-09-08, 03:07:04,VALID,1009.86,VALID,0,VALID,103.489,VALID,0,VALID,22.7588,VALID,169,VALID,0.38125,
2010-09-08, 03:08:04,VALID,1009.87,VALID,0,VALID,103.481,VALID,0,VALID,22.7394,VALID,169,VALID,0,
2010-09-08, 03:09:04,VALID,1009.86,VALID,0,VALID,103.459,VALID,0,VALID,22.7394,VALID,163,VALID,0.154297,
2010-09-08, 03:10:04,VALID,1009.87,VALID,0,VALID,103.481,VALID,0,VALID,22.7588,VALID,87,VALID,0.556641,
2010-09-08, 03:11:04,VALID,1009.87,VALID,0,VALID,103.451,VALID,0,VALID,22.7588,VALID,81,VALID,0.512891,
2010-09-08, 03:12:04,VALID,1009.87,VALID,0,VALID,103.451,VALID,0,VALID,22.7783,VALID,81,VALID,0.328906,
2010-09-08, 03:13:04,VALID,1009.9,VALID,0,VALID,103.466,VALID,0,VALID,22.7783,VALID,81,VALID,0,
2010-09-08, 03:14:04,VALID,1009.9,VALID,0,VALID,103.451,VALID,0,VALID,22.7588,VALID,81,VALID,0.00234375,
2010-09-08, 03:15:04,VALID,1009.91,VALID,0,VALID,103.451,VALID,0,VALID,22.7588,VALID,81,VALID,0,
2010-09-08, 03:16:04,VALID,1009.91,VALID,0,VALID,103.451,VALID,0,VALID,22.7588,VALID,81,VALID,0,
2010-09-08, 03:17:04,VALID,1009.93,VALID,0,VALID,103.428,VALID,0,VALID,22.7588,VALID,81,VALID,0,
2010-09-08, 03:18:04,VALID,1009.96,VALID,0,VALID,103.443,VALID,0,VALID,22.7783,VALID,81,VALID,0,
2010-09-08, 03:19:04,VALID,1009.95,VALID,0,VALID,103.436,VALID,0,VALID,22.7978,VALID,81,VALID,0.169531,
2010-09-08, 03:20:04,VALID,1009.94,VALID,0,VALID,103.436,VALID,0,VALID,22.7588,VALID,81,VALID,0,
2010-09-08, 03:21:04,VALID,1010.01,VALID,0,VALID,103.413,VALID,0,VALID,22.7588,VALID,88,VALID,0,
2010-09-08, 03:22:04,VALID,1009.97,VALID,0,VALID,103.39,VALID,0,VALID,22.7588,VALID,88,VALID,0,
2010-09-08, 03:23:04,VALID,1010.01,VALID,0,VALID,103.367,VALID,0,VALID,22.7783,VALID,92,VALID,0.512109,
2010-09-08, 03:24:04,VALID,1010.01,VALID,0,VALID,103.352,VALID,0,VALID,22.7588,VALID,104,VALID,0.644922,
2010-09-08, 03:25:04,VALID,1009.98,VALID,0,VALID,103.321,VALID,0,VALID,22.7588,VALID,104,VALID,0.289453,
2010-09-08, 03:26:04,VALID,1009.99,VALID,0,VALID,103.321,VALID,0,VALID,22.7995,VALID,115,VALID,0.570703,
2010-09-08, 03:27:04,VALID,1009.99,VALID,0,VALID,103.306,VALID,0,VALID,22.8385,VALID,120,VALID,0.383203,
2010-09-08, 03:28:04,VALID,1009.96,VALID,0,VALID,103.352,VALID,0,VALID,22.8173,VALID,120,VALID,0.0691406,
2010-09-08, 03:29:04,VALID,1009.96,VALID,0,VALID,103.344,VALID,0,VALID,22.8385,VALID,120,VALID,0,
2010-09-08, 03:30:04,VALID,1009.94,VALID,0,VALID,103.359,VALID,0,VALID,22.8173,VALID,120,VALID,0,
2010-09-08, 03:31:04,VALID,1009.94,VALID,0,VALID,103.367,VALID,0,VALID,22.8173,VALID,120,VALID,0,
2010-09-08, 03:32:04,VALID,1009.95,VALID,0,VALID,103.344,VALID,0,VALID,22.8173,VALID,120,VALID,0,
2010-09-08, 03:33:04,VALID,1009.95,VALID,0,VALID,103.352,VALID,0,VALID,22.8173,VALID,120,VALID,0.260938,
2010-09-08, 03:34:04,VALID,1009.93,VALID,0,VALID,103.375,VALID,0,VALID,22.8368,VALID,111,VALID,0.112109,
2010-09-08, 03:35:04,VALID,1009.95,VALID,0,VALID,103.375,VALID,0,VALID,22.8173,VALID,55,VALID,0.255859,
2010-09-08, 03:36:04,VALID,1009.96,VALID,0,VALID,103.367,VALID,0,VALID,22.7978,VALID,55,VALID,0.266797,
2010-09-08, 03:37:04,VALID,1009.96,VALID,0,VALID,103.382,VALID,0,VALID,22.7978,VALID,55,VALID,0.248047,
2010-09-08, 03:38:04,VALID,1009.96,VALID,0,VALID,103.375,VALID,0,VALID,22.7588,VALID,55,VALID,0.187891,
2010-09-08, 03:39:04,VALID,1009.96,VALID,0,VALID,103.367,VALID,0,VALID,22.78,VALID,55,VALID,0.387891,
2010-09-08, 03:40:04,VALID,1009.96,VALID,0,VALID,103.398,VALID,0,VALID,22.7588,VALID,55,VALID,0.287891,
2010-09-08, 03:41:04,VALID,1009.94,VALID,0,VALID,103.405,VALID,0,VALID,22.7588,VALID,55,VALID,0.227734,
2010-09-08, 03:42:04,VALID,1009.97,VALID,0,VALID,103.436,VALID,0,VALID,22.7394,VALID,46,VALID,0.495703,
2010-09-08, 03:43:04,VALID,1009.96,VALID,0,VALID,103.436,VALID,0,VALID,22.7588,VALID,22,VALID,0.237891,
2010-09-08, 03:44:04,VALID,1009.93,VALID,0,VALID,103.466,VALID,0,VALID,22.7588,VALID,22,VALID,0.291797,
2010-09-08, 03:45:04,VALID,1009.93,VALID,0,VALID,103.481,VALID,0,VALID,22.7394,VALID,22,VALID,0.220313,